[[{"header":{"parameterUnit":"m.s-1","parameterCategory":1,"la1":30.2991,"la2":30.254,"lo1":-89.0895,"lo2":-89.0444,"dy":0.0017,"dx":0.0017,"nx":28,"ny":28,"refTime":"2023-09-07T03:00:00:Z","depth":0,"parameterNumber":2,"parameterNumberName":"U-component_of_WINDS"},"data":[0,0,0,0,0,0,0,0,0,0,0,0,0,0,0,0,0,0,0,0,0,0,0,0,0,0,0,0,0,0,0,0,0,0,0,0,0,0,0,0,0,0,0,0,0,0,0,0,0,0,0,0,0,0,0,0,0,0,1.6482,1.6483,0,1.656,1.6561,1.6562,1.6575,1.6574,1.6573,1.6572,1.6657,1.666,1.6663,0,0,0,0,0,0,0,0,0,0,0,0,0,1.6349,1.6351,1.6482,1.6483,1.6484,1.656,1.6561,1.6562,1.6575,1.6574,1.6573,1.6572,1.6656,1.6659,1.6663,0,0,0,0,0,0,0,0,0,0,0,0,0,1.6415,1.6352,1.6482,1.6499,1.6502,1.656,1.6561,1.6563,1.6575,1.6574,1.6573,1.6572,1.6655,1.6659,1.6663,1.6711,0,0,1.6677,1.6679,0,0,0,0,0,0,0,0,1.6411,1.642,1.6496,1.6498,1.6501,1.6557,1.6545,1.6613,1.6575,1.6547,1.6572,1.6571,1.6625,1.6631,1.6649,1.6715,1.6719,1.6677,1.668,1.6682,1.6683,0,0,0,0,0,0,0,1.6407,1.6417,1.6513,1.6497,1.65,1.6505,1.6513,1.6558,1.6591,1.655,1.6551,1.656,1.6626,1.6644,1.6651,1.672,1.6677,1.6681,1.6683,1.6685,1.6832,1.6833,0,0,0,0,0,0,1.6398,1.6413,1.6511,1.6516,1.6452,1.6508,1.6517,1.654,1.6591,1.6597,1.656,1.656,1.6637,1.6646,1.6654,1.6714,1.6681,1.6686,1.6688,1.683,1.6832,1.6833,0,0,0,0,0,0,1.6395,1.6407,1.6508,1.6465,1.6478,1.6512,1.6537,1.6542,1.656,1.6599,1.6605,1.6573,1.6637,1.6648,1.6697,1.6717,1.6688,1.6691,1.6829,1.6831,1.6833,1.6834,0,0,0,0,0,0,1.6391,1.6406,1.6423,1.6465,1.648,1.6548,1.6538,1.6544,1.6567,1.6567,1.6612,1.6618,1.6637,1.669,1.6701,1.6722,1.6695,1.6827,1.683,1.6832,1.6833,1.6836,1.6839,0,0,0,0,0,1.6387,1.6421,1.6424,1.6436,1.6502,1.6549,1.6558,1.6577,1.6569,1.6587,1.6612,1.6617,1.6713,1.6695,1.6708,1.6731,1.6826,1.6829,1.6832,1.6831,1.6835,1.6839,0,0,0,0,0,0,1.6382,1.6427,1.643,1.6479,1.651,1.6551,1.6575,1.6581,1.6616,1.6615,1.6639,1.6649,1.6697,1.6719,1.6698,1.678,1.6769,1.6775,1.6764,1.6769,1.6772,1.6766,1.6699,0,0,0,0,0,1.6386,1.6419,1.6457,1.6497,1.6512,1.6541,1.6562,1.6574,1.6608,1.6622,1.665,1.6684,1.6722,1.6746,1.6783,1.6836,1.6847,1.6858,1.6861,1.6863,1.6868,1.6899,1.6905,1.6843,1.6843,1.6843,0,0,1.6396,1.6425,1.6444,1.6497,1.6522,1.6558,1.6552,1.6589,1.6616,1.6628,1.6676,1.6698,1.6738,1.6789,1.6813,1.6809,1.6888,1.6867,1.6869,1.6872,1.6902,1.6908,1.6913,1.6845,1.6844,1.6844,0,0,1.6432,1.6457,1.6493,1.6518,1.6557,1.6576,1.6584,1.6625,1.664,1.6688,1.6698,1.6731,1.6795,1.6823,1.6846,1.6894,1.69,1.6906,1.6923,1.6952,1.6957,1.6961,1.6979,1.6986,1.691,1.691,1.691,0,1.644,1.6492,1.6511,1.6548,1.6571,1.6582,1.662,1.6644,1.6693,1.671,1.6704,1.6786,1.6813,1.6872,1.6883,1.6901,1.6913,1.6901,1.6954,1.6959,1.6964,1.6981,1.6988,1.6911,1.691,1.691,1.691,0,1.6501,1.6537,1.6562,1.6607,1.6634,1.6671,1.6697,1.6721,1.6731,1.6752,1.6802,1.6835,1.6879,1.6894,1.6905,1.6955,1.6951,1.6949,1.6939,1.697,1.6987,1.6993,1.6911,1.6911,1.6911,1.6911,0,0,1.6536,1.6591,1.66,1.6622,1.6665,1.6695,1.6733,1.6775,1.6797,1.6831,1.6864,1.6919,1.6918,1.6944,1.6958,1.6984,1.7021,1.6979,1.6981,1.6987,1.7079,1.7081,1.7088,1.7025,1.7026,1.7028,1.7076,0,1.6577,1.6645,1.6663,1.6721,1.6756,1.6767,1.6801,1.6832,1.6853,1.6886,1.6909,1.6948,1.6943,1.6959,1.6985,1.7011,1.704,1.7007,1.7059,1.706,1.7048,1.7097,1.7098,1.7142,1.7083,1.7084,1.7085,0,1.6635,1.6669,1.673,1.677,1.6785,1.6815,1.6856,1.6887,1.6924,1.6937,1.6966,1.6978,1.702,1.7007,1.7067,1.7044,1.7066,1.7082,1.7084,1.709,1.7075,1.7105,1.7157,1.7164,1.7095,1.7095,1.7094,0,1.6655,1.6717,1.6761,1.6779,1.6827,1.6848,1.6869,1.6904,1.6929,1.6965,1.6982,1.7023,1.7045,1.7078,1.7101,1.7089,1.7159,1.7147,1.7172,1.7172,1.7187,1.7186,1.7244,1.72,1.72,1.72,1.72,0,1.6701,1.6738,1.6771,1.6799,1.6841,1.6863,1.6905,1.6927,1.6958,1.6992,1.7004,1.7036,1.7064,1.71,1.7118,1.7166,1.7176,1.7189,1.7193,1.7188,1.7186,1.7203,1.7201,1.7202,1.7201,1.7201,1.7201,0,1.6731,1.6754,1.6804,1.6845,1.6856,1.6886,1.6922,1.695,1.6971,1.7013,1.7024,1.7057,1.71,1.7126,1.718,1.7193,1.7245,1.7249,1.7232,1.7235,1.7259,1.7256,1.733,1.7341,1.7289,1.729,1.729,0,1.6758,1.6787,1.6831,1.6853,1.6874,1.6911,1.6936,1.6959,1.6985,1.7029,1.7052,1.7095,1.7131,1.7199,1.7229,1.727,1.7275,1.7298,1.7282,1.7276,1.7277,1.7275,1.7278,1.7301,1.7302,1.7302,1.7302,0,1.6804,1.6815,1.685,1.6889,1.6918,1.6951,1.6983,1.7001,1.703,1.7059,1.7102,1.7129,1.7185,1.7228,1.7272,1.7296,1.7305,1.7307,1.7315,1.731,1.73,1.7307,1.7241,1.7306,1.7305,1.7305,1.7305,1.7305,1.6834,1.6861,1.6896,1.6935,1.6962,1.6992,1.7021,1.7045,1.7081,1.7127,1.7138,1.7184,1.7221,1.7282,1.7306,1.7343,1.734,1.7352,1.7355,1.7357,1.7358,1.7294,1.7352,1.7352,1.7351,1.7351,1.7351,0,1.6882,1.6905,1.6941,1.6986,1.7017,1.7021,1.7057,1.7083,1.7123,1.7156,1.7191,1.7241,1.7283,1.7316,1.736,1.7383,1.7389,1.7394,1.7393,1.7398,1.7358,1.7347,1.7389,1.7389,1.7389,1.7389,1.7389,1.7389,1.691,1.6956,1.6971,1.703,1.7054,1.7098,1.7118,1.7147,1.7174,1.7229,1.7263,1.7284,1.7318,1.7365,1.7404,1.7413,1.7429,1.7434,1.7443,1.7405,1.7401,1.7397,1.7387,1.7437,1.7437,1.7481,1.7481,1.7481]},{"header":{"parameterUnit":"m.s-1","parameterCategory":1,"la1":30.2991,"la2":30.254,"lo1":-89.0895,"lo2":-89.0444,"dy":0.0017,"dx":0.0017,"nx":28,"ny":28,"refTime":"2023-09-07T03:00:00:Z","depth":0,"parameterNumber":3,"parameterNumberName":"V-component_of_WINDS"},"data":[0,0,0,0,0,0,0,0,0,0,0,0,0,0,0,0,0,0,0,0,0,0,0,0,0,0,0,0,0,0,0,0,0,0,0,0,0,0,0,0,0,0,0,0,0,0,0,0,0,0,0,0,0,0,0,0,0,0,2.836,2.8361,0,2.8407,2.8408,2.8408,2.8403,2.8402,2.8401,2.8401,2.8446,2.8448,2.8449,0,0,0,0,0,0,0,0,0,0,0,0,0,2.8261,2.8263,2.836,2.8361,2.8362,2.8407,2.8408,2.8408,2.8403,2.8402,2.8401,2.84,2.8445,2.8447,2.845,0,0,0,0,0,0,0,0,0,0,0,0,0,2.8306,2.8264,2.836,2.8364,2.8365,2.8407,2.8408,2.8408,2.8403,2.8402,2.8401,2.84,2.8444,2.8447,2.845,2.849,0,0,2.8459,2.846,0,0,0,0,0,0,0,0,2.8303,2.8309,2.8363,2.8364,2.8365,2.8398,2.8389,2.8436,2.8403,2.8389,2.84,2.8399,2.8431,2.8434,2.8446,2.8492,2.8494,2.8459,2.8461,2.8462,2.8463,0,0,0,0,0,0,0,2.83,2.8307,2.8379,2.8364,2.8365,2.8362,2.8367,2.8398,2.8415,2.839,2.839,2.8395,2.8431,2.8443,2.8447,2.8494,2.8459,2.8461,2.8463,2.8464,2.857,2.8571,0,0,0,0,0,0,2.8297,2.8305,2.8377,2.838,2.8331,2.8365,2.837,2.8389,2.8415,2.8418,2.8396,2.8395,2.8439,2.8443,2.8448,2.8493,2.8462,2.8464,2.8466,2.8569,2.857,2.8571,0,0,0,0,0,0,2.8295,2.8303,2.8375,2.8342,2.8351,2.8368,2.8388,2.839,2.8402,2.842,2.8422,2.8406,2.8438,2.8444,2.8478,2.8494,2.8466,2.8468,2.8567,2.8569,2.857,2.8584,0,0,0,0,0,0,2.8292,2.8303,2.8319,2.8343,2.8353,2.8407,2.8389,2.8392,2.8407,2.8406,2.8429,2.8432,2.8437,2.8474,2.8481,2.8498,2.847,2.8566,2.8568,2.857,2.8583,2.8586,2.859,0,0,0,0,0,2.8288,2.8322,2.832,2.8329,2.8375,2.8408,2.8413,2.842,2.8409,2.8424,2.8435,2.8431,2.8492,2.8478,2.8485,2.8503,2.8565,2.8567,2.857,2.8581,2.8586,2.859,0,0,0,0,0,0,2.8301,2.8325,2.8324,2.8367,2.8385,2.8407,2.8427,2.8425,2.8447,2.8445,2.8451,2.8456,2.8489,2.85,2.8484,2.854,2.8526,2.8531,2.8532,2.8537,2.854,2.8536,2.8473,0,0,0,0,0,2.8308,2.8334,2.8354,2.839,2.8399,2.8411,2.8426,2.8429,2.8448,2.8456,2.8469,2.8486,2.8509,2.8524,2.8546,2.8584,2.8587,2.86,2.8603,2.8606,2.8609,2.8626,2.8631,2.8579,2.8579,2.8579,0,0,2.8325,2.8341,2.8357,2.8392,2.8407,2.8431,2.8418,2.8446,2.8463,2.846,2.8492,2.8502,2.8521,2.8557,2.8573,2.8566,2.8624,2.8609,2.8611,2.8613,2.8629,2.8634,2.8638,2.8581,2.8581,2.858,0,0,2.8366,2.8383,2.8412,2.8426,2.8448,2.8455,2.8462,2.8483,2.849,2.8522,2.8519,2.8539,2.8579,2.8591,2.8603,2.8644,2.864,2.8651,2.8669,2.8685,2.8689,2.8693,2.8704,2.8709,2.8654,2.8654,2.8654,0,2.8383,2.8421,2.8427,2.8454,2.8467,2.8465,2.8493,2.8506,2.8534,2.8542,2.8535,2.8581,2.8595,2.8631,2.8641,2.8651,2.8657,2.8648,2.8688,2.8692,2.8695,2.8706,2.8711,2.8655,2.8655,2.8655,2.8655,0,2.8438,2.8464,2.8485,2.8511,2.8527,2.8554,2.8562,2.8578,2.8578,2.8585,2.8616,2.8631,2.8654,2.8664,2.8665,2.8699,2.8693,2.8687,2.8673,2.8701,2.8711,2.8716,2.8657,2.8656,2.8656,2.8656,0,0,2.8491,2.8517,2.8524,2.8533,2.8555,2.8575,2.86,2.8622,2.8633,2.8652,2.8671,2.8703,2.8696,2.8709,2.8711,2.8726,2.8753,2.8717,2.8718,2.8721,2.8787,2.879,2.8795,2.8751,2.8752,2.8752,2.8784,0,2.8531,2.8577,2.8581,2.8621,2.8642,2.8638,2.866,2.8674,2.8681,2.8698,2.8705,2.8726,2.8718,2.8725,2.8739,2.8747,2.8766,2.8745,2.8766,2.8767,2.876,2.8801,2.8805,2.8834,2.8788,2.8789,2.879,0,2.8586,2.8604,2.8645,2.866,2.8669,2.8689,2.8707,2.8725,2.874,2.8743,2.8756,2.8756,2.8779,2.8764,2.8794,2.878,2.8788,2.8793,2.8794,2.8795,2.8779,2.88,2.8844,2.8848,2.8797,2.8796,2.8796,0,2.8615,2.865,2.8678,2.8687,2.8706,2.8719,2.8727,2.8741,2.8753,2.8769,2.8776,2.8794,2.8804,2.8817,2.8821,2.881,2.8849,2.8836,2.885,2.885,2.8858,2.8857,2.8902,2.8867,2.8867,2.8867,2.8867,0,2.8659,2.8683,2.8691,2.8708,2.8734,2.8738,2.8763,2.8771,2.8782,2.8799,2.8798,2.8813,2.8817,2.8833,2.8836,2.8858,2.8863,2.8865,2.8865,2.8864,2.8863,2.8869,2.8866,2.8868,2.8868,2.8868,2.8867,0,2.8696,2.8702,2.8732,2.8747,2.8751,2.8769,2.878,2.8796,2.8801,2.8822,2.8827,2.8835,2.8853,2.8857,2.888,2.8881,2.8906,2.8906,2.8901,2.8901,2.8914,2.8912,2.8962,2.8967,2.8931,2.8931,2.8932,0,2.8722,2.8741,2.8756,2.8767,2.8776,2.8794,2.8805,2.8809,2.882,2.8836,2.8848,2.8866,2.888,2.8908,2.8915,2.8931,2.8929,2.8945,2.8931,2.8929,2.8926,2.8924,2.8925,2.8948,2.8948,2.8948,2.8949,0,2.8767,2.8769,2.8785,2.8802,2.8815,2.8829,2.8842,2.885,2.8855,2.8868,2.8886,2.8896,2.8917,2.8934,2.8949,2.8956,2.8952,2.8953,2.8957,2.8955,2.8951,2.895,2.8906,2.8952,2.8951,2.8951,2.8951,2.8951,2.8798,2.8812,2.8825,2.8842,2.8852,2.8863,2.8876,2.8883,2.8898,2.8915,2.8916,2.8934,2.8945,2.8965,2.8972,2.8986,2.8981,2.8987,2.8988,2.8989,2.8989,2.895,2.8989,2.8989,2.8989,2.8989,2.8989,0,2.884,2.8847,2.8863,2.888,2.8893,2.8889,2.8901,2.8912,2.8929,2.8939,2.8952,2.8971,2.8986,2.8993,2.9008,2.9017,2.9015,2.902,2.9019,2.9019,2.8994,2.8988,2.9021,2.9021,2.9021,2.9021,2.9021,2.9021,2.8863,2.8887,2.8889,2.8916,2.8922,2.894,2.8947,2.8957,2.8965,2.8986,2.8998,2.9003,2.9011,2.9025,2.9038,2.9039,2.9044,2.9049,2.9049,2.9025,2.9022,2.9019,2.9013,2.905,2.905,2.9074,2.9074,2.9074]}]]